Location: El Carrer d�Abaix
(41.5797°N, 2.1791°E)
Time: 21:02:14
(UTC+00:00)

Cosmos 2082 Rocket - Pass Details

Date: 03 October 2020
Orbit: 834 x 853 km, 71.0° (Epoch: 27 October)

Event Time Altitude Azimuth Distance (km) Brightness Sun altitude
Rises 18:46:39 0° 338° (NNW) 3,393 5.8 -15.3°
Reaches altitude 10° 18:49:07 10° 341° (NNW) 2,457 5.0 -15.8°
Maximum altitude 18:54:43 67° 64° (ENE) 911 2.1 -16.8°
Enters shadow 18:58:56 18° 144° (SE) 1,941 3.7 -17.6°
